Indianapolis, IN

3:46 PM EST on November 19, 2019 (GMT -0500)
Indianapolis Terry

Weather History for KTYQ - May, 2019

Change the Weather History Date:

Friday, May 24, 2019

  Actual Average (WUND) Record (WUND)
Temperature  
Mean Temperature 70 °F -  
Max Temperature 83 °F - - (-1)
Min Temperature 56 °F - - (-1)
Cooling Degree Days 4    
Growing Degree Days 20 (Base 50)    
Moisture  
Dew Point 64 °F    
Average Humidity 86    
Maximum Humidity 100    
Minimum Humidity 62    
Precipitation  
Precipitation 0.00 in - - ()
Sea Level Pressure  
Sea Level Pressure 30.09 in    
Wind  
Wind Speed 4 mph ()    
Max Wind Speed 13 mph    
Max Gust Speed 20 mph    
Visibility 9.9 miles    
Events Thunderstorm    
Averages and records for this station are not official NWS values.
T = Trace of Precipitation, MM = Missing Value Source: Averaged Metar Reports

Daily Weather History Graph

Daily Weather History Graph

Search for Another Location

Airport or City:

Astronomy

May. 24, 2019 Rise Set
Actual Time 6:22 AM EDT 9:01 PM EDT
Civil Twilight 5:51 AM EDT 9:33 PM EDT
Nautical Twilight 5:11 AM EDT 10:12 PM EDT
Astronomical Twilight 4:27 AM EDT 10:57 PM EDT
Moon 1:25 AM EDT (5/24) 11:22 AM EDT (5/24)
Length of Visible Light 15h 41m
Length of Day
14h 38m
Waning Gibbous, 69% of the Moon is Illuminated
May 24
Waning Gibbous
May 26
Last Quarter
Jun 3
New
Jun 10
First Quarter
Jun 17
Full

Hourly Weather History & Observations

Time (EDT) Temp. Heat Index Dew Point Humidity Pressure Visibility Wind Dir Wind Speed Gust Speed Precip Events Conditions
12:15 AM 64.8 °F - 63.3 °F 95% 30.11 in 10.0 mi NNW 5.8 mph - N/A   Clear
12:35 AM 63.9 °F - 62.6 °F 96% 30.11 in 10.0 mi NNW 5.8 mph - N/A   Clear
12:55 AM 61.9 °F - 61.9 °F 100% 30.11 in 10.0 mi Calm Calm - N/A   Clear
1:15 AM 62.4 °F - 62.1 °F 99% 30.10 in 10.0 mi Calm Calm - N/A   Clear
1:35 AM 61.7 °F - 61.7 °F 100% 30.10 in 10.0 mi Calm Calm - N/A   Clear
1:55 AM 60.6 °F - 60.6 °F 100% 30.10 in 10.0 mi Calm Calm - N/A   Clear
2:15 AM 59.9 °F - 59.9 °F 100% 30.10 in 10.0 mi Calm Calm - N/A   Clear
2:35 AM 59.2 °F - 59.2 °F 100% 30.10 in 10.0 mi Calm Calm - N/A   Clear
2:55 AM 58.3 °F - 58.3 °F 100% 30.10 in 10.0 mi Calm Calm - N/A   Clear
3:15 AM 58.5 °F - 58.5 °F 100% 30.10 in 10.0 mi Calm Calm - N/A   Clear
3:35 AM 58.5 °F - 58.5 °F 100% 30.10 in 10.0 mi Calm Calm - N/A   Clear
3:55 AM 57.6 °F - 57.6 °F 100% 30.10 in 10.0 mi Calm Calm - N/A   Clear
4:15 AM 58.1 °F - 58.1 °F 100% 30.10 in 7.0 mi Calm Calm - N/A   Clear
4:35 AM 57.2 °F - 57.2 °F 100% 30.11 in 10.0 mi Calm Calm - N/A   Clear
4:55 AM 57.4 °F - 57.4 °F 100% 30.11 in 10.0 mi Calm Calm - N/A   Clear
5:15 AM 57.2 °F - 57.2 °F 100% 30.11 in 7.0 mi Calm Calm - N/A   Clear
5:35 AM 56.7 °F - 56.7 °F 100% 30.11 in 10.0 mi Calm Calm - N/A   Clear
5:55 AM 56.3 °F - 56.3 °F 100% 30.11 in 10.0 mi Calm Calm - N/A   Clear
6:15 AM 57.0 °F - 57.0 °F 100% 30.11 in 10.0 mi Calm Calm - N/A   Clear
6:35 AM 56.7 °F - 56.7 °F 100% 30.11 in 10.0 mi Calm Calm - N/A   Clear
6:55 AM 57.9 °F - 57.9 °F 100% 30.11 in 10.0 mi Calm Calm - N/A   Mostly Cloudy
7:15 AM 58.8 °F - 58.8 °F 100% 30.12 in 10.0 mi Calm Calm - N/A   Overcast
7:35 AM 59.9 °F - 59.9 °F 100% 30.13 in 10.0 mi Calm Calm - N/A   Overcast
7:55 AM 61.2 °F - 61.2 °F 100% 30.13 in 10.0 mi Calm Calm - N/A   Overcast
8:15 AM 62.4 °F - 62.2 °F 99% 30.12 in 10.0 mi SE 6.9 mph - N/A   Mostly Cloudy
8:35 AM 63.5 °F - 61.7 °F 94% 30.13 in 10.0 mi SSE 4.6 mph - N/A Thunderstorm Scattered Clouds
8:55 AM 64.4 °F - 61.7 °F 91% 30.13 in 10.0 mi South 5.8 mph - N/A   Scattered Clouds
9:15 AM 65.3 °F - 61.3 °F 87% 30.13 in 10.0 mi SSE 8.1 mph - N/A   Overcast
9:35 AM 66.0 °F - 61.9 °F 86% 30.13 in 10.0 mi South 9.2 mph - N/A Thunderstorm Overcast
9:55 AM 67.1 °F - 62.8 °F 86% 30.14 in 10.0 mi SSE 8.1 mph - N/A   Mostly Cloudy
10:35 AM 68.5 °F - 66.0 °F 92% 30.12 in 10.0 mi South 8.1 mph - N/A   Overcast
10:55 AM 71.2 °F - 66.0 °F 84% 30.12 in 10.0 mi South 8.1 mph - N/A   Scattered Clouds
11:15 AM 67.3 °F - 63.7 °F 88% 30.12 in 10.0 mi East 8.1 mph - N/A   Mostly Cloudy
11:35 AM 66.9 °F - 63.5 °F 89% 30.12 in 10.0 mi NE 11.5 mph - N/A   Overcast
11:55 AM 64.9 °F - 61.7 °F 89% 30.14 in 10.0 mi ENE 8.1 mph - N/A   Overcast
12:15 PM 66.0 °F - 61.5 °F 85% 30.13 in 10.0 mi ENE 9.2 mph - N/A   Overcast
12:35 PM 66.9 °F - 62.1 °F 84% 30.13 in 10.0 mi East 10.4 mph - N/A   Overcast
12:55 PM 69.3 °F - 63.0 °F 80% 30.13 in 10.0 mi East 8.1 mph - N/A   Overcast
1:15 PM 71.6 °F - 64.2 °F 77% 30.13 in 10.0 mi ESE 6.9 mph - N/A   Scattered Clouds
1:35 PM 71.8 °F - 64.2 °F 77% 30.13 in 10.0 mi East 8.1 mph - N/A   Clear
1:55 PM 73.2 °F - 65.5 °F 77% 30.13 in 10.0 mi East 8.1 mph - N/A   Scattered Clouds
2:15 PM 73.6 °F - 65.8 °F 77% 30.12 in 10.0 mi East 6.9 mph - N/A   Clear
2:35 PM 75.7 °F - 67.3 °F 75% 30.12 in 10.0 mi East 5.8 mph - N/A   Scattered Clouds
2:55 PM 75.4 °F - 67.6 °F 77% 30.11 in 10.0 mi ESE 5.8 mph - N/A   Scattered Clouds
3:15 PM 76.5 °F - 68.9 °F 77% 30.11 in 10.0 mi Calm Calm - N/A   Clear
3:35 PM 78.4 °F - 70.2 °F 76% 30.11 in 10.0 mi Calm Calm - N/A   Clear
3:55 PM 78.4 °F - 70.3 °F 76% 30.11 in 10.0 mi Calm Calm - N/A   Clear
4:15 PM 79.2 °F - 70.0 °F 73% 30.10 in 10.0 mi SSE 3.5 mph - N/A   Clear
4:35 PM 80.1 °F 83.3 °F 70.3 °F 72% 30.09 in 10.0 mi SSE 3.5 mph - N/A   Clear
4:55 PM 80.6 °F 84.2 °F 70.9 °F 72% 30.08 in 10.0 mi South 3.5 mph - N/A   Clear
5:15 PM 81.7 °F 85.8 °F 71.2 °F 70% 30.07 in 10.0 mi SE 5.8 mph - N/A   Clear
5:35 PM 82.6 °F 86.6 °F 70.3 °F 66% 30.06 in 10.0 mi SE 5.8 mph - N/A   Scattered Clouds
5:55 PM 82.6 °F 87.1 °F 71.1 °F 68% 30.05 in 10.0 mi SSE 8.1 mph - N/A   Scattered Clouds
6:15 PM 83.7 °F 88.6 °F 71.2 °F 66% 30.04 in 10.0 mi SSW 6.9 mph - N/A   Clear
6:35 PM 83.3 °F 86.9 °F 69.3 °F 62% 30.03 in 10.0 mi SSW 12.7 mph - N/A   Clear
6:55 PM 82.9 °F 86.5 °F 69.1 °F 63% 30.02 in 10.0 mi SSW 11.5 mph - N/A   Clear
7:15 PM 82.4 °F 85.4 °F 68.2 °F 62% 30.00 in 10.0 mi South 12.7 mph 18.4 mph N/A   Clear
7:35 PM 81.9 °F 84.8 °F 68.0 °F 63% 30.00 in 10.0 mi SSW 12.7 mph 19.6 mph N/A   Clear
7:55 PM 81.0 °F 83.9 °F 68.5 °F 66% 30.00 in 10.0 mi SSW 10.4 mph - N/A   Clear
8:15 PM 80.1 °F 82.7 °F 68.2 °F 67% 29.99 in 10.0 mi SSW 12.7 mph - N/A   Clear
8:35 PM 79.0 °F - 67.5 °F 68% 29.99 in 10.0 mi SSW 10.4 mph 17.3 mph N/A   Clear
8:55 PM 77.9 °F - 67.1 °F 69% 29.98 in 10.0 mi South 11.5 mph - N/A   Clear
9:15 PM 77.4 °F - 66.7 °F 70% 29.99 in 10.0 mi SSW 9.2 mph - N/A   Clear
9:35 PM 76.3 °F - 66.4 °F 71% 29.99 in 10.0 mi SSW 6.9 mph - N/A   Clear
9:55 PM 74.7 °F - 66.4 °F 75% 30.00 in 10.0 mi SSW 3.5 mph - N/A   Clear
10:15 PM 74.3 °F - 66.4 °F 76% 30.01 in 10.0 mi SSW 4.6 mph - N/A   Clear
10:35 PM 72.7 °F - 66.6 °F 81% 30.01 in 10.0 mi SSW 3.5 mph - N/A   Clear
10:55 PM 69.3 °F - 67.3 °F 93% 30.02 in 10.0 mi South 3.5 mph - N/A   Clear
11:15 PM 69.8 °F - 67.1 °F 91% 30.03 in 10.0 mi Calm Calm - N/A   Clear
11:35 PM 68.7 °F - 67.3 °F 95% 30.04 in 10.0 mi Calm Calm - N/A   Clear
11:55 PM 66.6 °F - 66.6 °F 100% 30.03 in 10.0 mi South 5.8 mph - N/A   Clear